User: anonymous   Login
Location: Dugenta
(41.1333°N, 14.4500°E)
Time: 16:10:59
(UTC+00:00)
Language:

CSL-04 Rocket - Orbit

View from above orbital plane
View from above orbital plane
View from above satellite
View from above satellite

Ground track
Ground track

The orbit data is extracted from the following two-line orbital elements,

1 25732U 99025C   21135.96116309 -.00000036  00000-0  44794-5 0  9994
2 25732  98.9049 172.3405 0036988 344.1120  77.9918 14.17692414138935
Epoch (UTC): 15 May 2021 23:04:04
Eccentricity: 0.0036988
inclination: 98.9049°
perigee height: 806 km
apogee height: 860 km
right ascension of ascending node: 172.3405°
argument of perigee: 344.1120°
revolutions per day: 14.17692414
mean anomaly at epoch: 77.9918°
orbit number at epoch: 13893

The dashed part of the orbit path shows where the satellite is in the earth's shadow,  

DLR